Time,TemperatureF,DewpointF,PressureIn,WindDirection,WindDirectionDegrees,WindSpeedMPH,WindSpeedGustMPH,Humidity,HourlyPrecipIn,Conditions,Clouds,dailyrainin,SoftwareType,DateUTC
2013-06-20 00:09:00,51.1,49.0,30.23,NE,40,0.0,-999.0,91,-99.99,,,0.00,weatherlink.com 1.10,2013-06-20 04:09:00,
2013-06-20 00:25:00,50.7,49.0,30.23,NE,40,0.0,-999.0,92,-99.99,,,0.00,weatherlink.com 1.10,2013-06-20 04:25:00,
2013-06-20 00:40:00,50.5,48.0,30.23,NE,40,0.0,-999.0,92,-99.99,,,0.00,weatherlink.com 1.10,2013-06-20 04:40:00,
2013-06-20 00:55:00,50.0,48.0,30.23,NE,40,0.0,-999.0,93,-99.99,,,0.00,weatherlink.com 1.10,2013-06-20 04:55:00,
2013-06-20 01:10:00,49.6,48.0,30.23,NE,40,0.0,-999.0,93,-99.99,,,0.00,weatherlink.com 1.10,2013-06-20 05:10:00,
2013-06-20 01:25:00,49.3,48.0,30.23,NE,40,0.0,-999.0,94,-99.99,,,0.00,weatherlink.com 1.10,2013-06-20 05:25:00,
2013-06-20 01:40:00,49.2,48.0,30.23,NE,40,0.0,-999.0,94,-99.99,,,0.00,weatherlink.com 1.10,2013-06-20 05:40:00,
2013-06-20 01:55:00,49.0,47.0,30.23,NE,40,0.0,-999.0,94,-99.99,,,0.00,weatherlink.com 1.10,2013-06-20 05:55:00,
2013-06-20 02:10:00,48.6,47.0,30.23,NE,40,0.0,-999.0,94,-99.99,,,0.00,weatherlink.com 1.10,2013-06-20 06:10:00,
2013-06-20 02:25:00,48.4,47.0,30.23,NE,40,0.0,-999.0,94,-99.99,,,0.00,weatherlink.com 1.10,2013-06-20 06:25:00,
2013-06-20 02:40:00,48.3,47.0,30.23,NE,40,0.0,-999.0,95,-99.99,,,0.00,weatherlink.com 1.10,2013-06-20 06:40:00,
2013-06-20 02:55:00,48.2,47.0,30.23,NE,40,0.0,-999.0,95,-99.99,,,0.00,weatherlink.com 1.10,2013-06-20 06:55:00,
2013-06-20 03:10:00,47.9,47.0,30.23,NE,40,0.0,-999.0,95,-99.99,,,0.00,weatherlink.com 1.10,2013-06-20 07:10:00,
2013-06-20 03:25:00,47.8,47.0,30.23,NE,40,0.0,-999.0,95,-99.99,,,0.00,weatherlink.com 1.10,2013-06-20 07:25:00,
2013-06-20 03:40:00,47.6,46.0,30.23,NE,40,0.0,-999.0,95,-99.99,,,0.00,weatherlink.com 1.10,2013-06-20 07:40:00,
2013-06-20 03:55:00,48.6,48.0,30.24,NE,40,0.0,-999.0,96,-99.99,,,0.00,weatherlink.com 1.10,2013-06-20 07:55:00,
2013-06-20 04:10:00,49.3,48.0,30.24,NE,40,0.0,-999.0,95,-99.99,,,0.00,weatherlink.com 1.10,2013-06-20 08:10:00,
2013-06-20 04:25:00,48.2,46.0,30.24,NE,40,0.0,-999.0,93,-99.99,,,0.00,weatherlink.com 1.10,2013-06-20 08:25:00,
2013-06-20 04:40:00,47.2,46.0,30.24,NE,40,0.0,-999.0,94,-99.99,,,0.00,weatherlink.com 1.10,2013-06-20 08:40:00,
2013-06-20 04:55:00,46.8,46.0,30.25,NE,40,0.0,-999.0,95,-99.99,,,0.00,weatherlink.com 1.10,2013-06-20 08:55:00,
2013-06-20 05:10:00,46.6,45.0,30.25,NE,40,0.0,-999.0,95,-99.99,,,0.00,weatherlink.com 1.10,2013-06-20 09:10:00,
2013-06-20 05:25:00,46.3,45.0,30.25,NE,40,0.0,-999.0,96,-99.99,,,0.00,weatherlink.com 1.10,2013-06-20 09:25:00,
2013-06-20 05:40:00,46.1,45.0,30.25,NE,40,0.0,-999.0,96,-99.99,,,0.00,weatherlink.com 1.10,2013-06-20 09:40:00,
2013-06-20 05:55:00,45.8,45.0,30.26,NE,40,0.0,-999.0,96,-99.99,,,0.00,weatherlink.com 1.10,2013-06-20 09:55:00,
2013-06-20 06:10:00,45.9,45.0,30.26,NE,40,0.0,-999.0,97,-99.99,,,0.00,weatherlink.com 1.10,2013-06-20 10:10:00,
2013-06-20 06:25:00,46.3,46.0,30.27,NE,40,0.0,-999.0,97,-99.99,,,0.00,weatherlink.com 1.10,2013-06-20 10:25:00,
2013-06-20 06:40:00,47.2,46.0,30.27,NE,40,0.0,-999.0,97,-99.99,,,0.00,weatherlink.com 1.10,2013-06-20 10:40:00,
2013-06-20 06:55:00,48.7,48.0,30.27,NE,40,0.0,-999.0,98,-99.99,,,0.00,weatherlink.com 1.10,2013-06-20 10:55:00,
2013-06-20 07:10:00,50.1,50.0,30.27,NE,40,1.0,-999.0,98,-99.99,,,0.00,weatherlink.com 1.10,2013-06-20 11:10:00,
2013-06-20 07:25:00,51.7,51.0,30.27,SE,127,1.0,-999.0,97,-99.99,,,0.00,weatherlink.com 1.10,2013-06-20 11:25:00,
2013-06-20 07:40:00,53.6,52.0,30.27,SE,128,2.0,-999.0,95,-99.99,,,0.00,weatherlink.com 1.10,2013-06-20 11:40:00,
2013-06-20 07:55:00,56.2,54.0,30.28,SE,127,0.0,-999.0,91,-99.99,,,0.00,weatherlink.com 1.10,2013-06-20 11:55:00,
2013-06-20 08:10:00,58.1,54.0,30.28,SE,127,1.0,-999.0,86,-99.99,,,0.00,weatherlink.com 1.10,2013-06-20 12:10:00,
2013-06-20 08:26:00,59.7,54.0,30.28,SE,127,0.0,-999.0,81,-99.99,,,0.00,weatherlink.com 1.10,2013-06-20 12:26:00,
2013-06-20 08:41:00,61.6,54.0,30.28,SE,127,0.0,-999.0,76,-99.99,,,0.00,weatherlink.com 1.10,2013-06-20 12:41:00,
2013-06-20 08:56:00,63.8,51.0,30.29,SE,128,0.0,-999.0,64,-99.99,,,0.00,weatherlink.com 1.10,2013-06-20 12:56:00,
2013-06-20 09:11:00,63.8,50.0,30.29,SE,128,0.0,-999.0,61,-99.99,,,0.00,weatherlink.com 1.10,2013-06-20 13:11:00,
2013-06-20 09:26:00,64.6,50.0,30.30,NNE,17,6.0,-999.0,60,-99.99,,,0.00,weatherlink.com 1.10,2013-06-20 13:26:00,
2013-06-20 09:41:00,64.5,51.0,30.30,NNE,13,4.0,-999.0,61,-99.99,,,0.00,weatherlink.com 1.10,2013-06-20 13:41:00,
2013-06-20 09:56:00,64.7,50.0,30.30,North,355,3.0,-999.0,59,-99.99,,,0.00,weatherlink.com 1.10,2013-06-20 13:56:00,
2013-06-20 10:11:00,65.2,50.0,30.30,NE,35,2.0,-999.0,58,-99.99,,,0.00,weatherlink.com 1.10,2013-06-20 14:11:00,
2013-06-20 10:26:00,65.3,50.0,30.30,North,355,4.0,-999.0,58,-99.99,,,0.00,weatherlink.com 1.10,2013-06-20 14:26:00,
2013-06-20 10:41:00,65.5,49.0,30.30,North,9,4.0,-999.0,56,-99.99,,,0.00,weatherlink.com 1.10,2013-06-20 14:41:00,
2013-06-20 10:56:00,65.9,50.0,30.30,North,355,7.0,-999.0,56,-99.99,,,0.00,weatherlink.com 1.10,2013-06-20 14:56:00,
2013-06-20 11:11:00,66.1,50.0,30.30,North,355,6.0,-999.0,56,-99.99,,,0.00,weatherlink.com 1.10,2013-06-20 15:11:00,
2013-06-20 11:26:00,67.6,50.0,30.29,ENE,62,3.0,-999.0,54,-99.99,,,0.00,weatherlink.com 1.10,2013-06-20 15:26:00,
2013-06-20 11:41:00,68.3,49.0,30.29,North,5,2.0,-999.0,51,-99.99,,,0.00,weatherlink.com 1.10,2013-06-20 15:41:00,
2013-06-20 11:56:00,69.0,51.0,30.28,North,9,4.0,-999.0,53,-99.99,,,0.00,weatherlink.com 1.10,2013-06-20 15:56:00,
2013-06-20 12:11:00,68.4,51.0,30.28,North,9,4.0,-999.0,54,-99.99,,,0.00,weatherlink.com 1.10,2013-06-20 16:11:00,
2013-06-20 12:26:00,69.2,52.0,30.27,NNW,348,5.0,-999.0,55,-99.99,,,0.00,weatherlink.com 1.10,2013-06-20 16:26:00,
2013-06-20 12:41:00,68.8,51.0,30.27,North,355,6.0,-999.0,53,-99.99,,,0.00,weatherlink.com 1.10,2013-06-20 16:41:00,
2013-06-20 12:56:00,69.3,50.0,30.27,North,11,3.0,-999.0,51,-99.99,,,0.00,weatherlink.com 1.10,2013-06-20 16:56:00,
2013-06-20 13:11:00,70.3,49.0,30.27,North,360,5.0,-999.0,47,-99.99,,,0.00,weatherlink.com 1.10,2013-06-20 17:11:00,
2013-06-20 13:26:00,70.7,48.0,30.27,NE,40,3.0,-999.0,44,-99.99,,,0.00,weatherlink.com 1.10,2013-06-20 17:26:00,
2013-06-20 13:41:00,70.3,48.0,30.27,North,5,7.0,-999.0,46,-99.99,,,0.00,weatherlink.com 1.10,2013-06-20 17:41:00,
2013-06-20 13:56:00,69.7,50.0,30.28,NE,45,4.0,-999.0,49,-99.99,,,0.00,weatherlink.com 1.10,2013-06-20 17:56:00,
2013-06-20 14:11:00,71.3,47.0,30.27,NE,49,6.0,-999.0,42,-99.99,,,0.00,weatherlink.com 1.10,2013-06-20 18:11:00,
2013-06-20 14:26:00,71.6,47.0,30.27,NE,47,5.0,-999.0,42,-99.99,,,0.00,weatherlink.com 1.10,2013-06-20 18:26:00,
2013-06-20 14:41:00,72.4,45.0,30.27,ENE,71,5.0,-999.0,38,-99.99,,,0.00,weatherlink.com 1.10,2013-06-20 18:41:00,
2013-06-20 14:56:00,72.4,45.0,30.27,NNE,22,5.0,-999.0,38,-99.99,,,0.00,weatherlink.com 1.10,2013-06-20 18:56:00,
2013-06-20 15:11:00,72.7,48.0,30.28,NNE,22,3.0,-999.0,42,-99.99,,,0.00,weatherlink.com 1.10,2013-06-20 19:11:00,
2013-06-20 15:26:00,72.2,50.0,30.28,North,10,5.0,-999.0,46,-99.99,,,0.00,weatherlink.com 1.10,2013-06-20 19:26:00,
2013-06-20 15:41:00,72.2,49.0,30.27,NE,44,2.0,-999.0,44,-99.99,,,0.00,weatherlink.com 1.10,2013-06-20 19:41:00,
2013-06-20 15:56:00,73.2,48.0,30.26,NE,38,1.0,-999.0,41,-99.99,,,0.00,weatherlink.com 1.10,2013-06-20 19:56:00,
2013-06-20 16:11:00,73.9,48.0,30.26,NE,49,5.0,-999.0,40,-99.99,,,0.00,weatherlink.com 1.10,2013-06-20 20:11:00,
2013-06-20 16:26:00,73.2,43.0,30.27,NE,41,6.0,-999.0,34,-99.99,,,0.00,weatherlink.com 1.10,2013-06-20 20:26:00,
2013-06-20 16:41:00,73.0,45.0,30.27,NE,41,4.0,-999.0,37,-99.99,,,0.00,weatherlink.com 1.10,2013-06-20 20:41:00,
2013-06-20 16:56:00,73.6,48.0,30.27,NE,46,3.0,-999.0,40,-99.99,,,0.00,weatherlink.com 1.10,2013-06-20 20:56:00,
2013-06-20 17:12:00,74.0,49.0,30.27,NE,38,4.0,-999.0,42,-99.99,,,0.00,weatherlink.com 1.10,2013-06-20 21:12:00,
2013-06-20 17:27:00,74.4,49.0,30.26,NE,46,0.0,-999.0,41,-99.99,,,0.00,weatherlink.com 1.10,2013-06-20 21:27:00,